Espace membre
Imprimable
Brussel, 02/10/2016, BEL - Brussels Marathon & Half Marathon
Liste des rapports > Marathon - Classement
Recherche: Page: [1]
196 Entrées
 
Les réclamations ne sont plus acceptées, les résultats sont considérés comme définitifs.
RangNrNomAgeIOCTempsTkmMoy.ScrLocalité
Vos photos gr?ce ? Sportograf1.1518VERMEULEN Laurent43BEL2:56:434:12 14.3323BRAINE LE COMTE
Vos photos gr?ce ? Sportograf2.139DECLERCK Peter41BEL2:57:214:13 14.2828SIJSELE
Vos photos gr?ce ? Sportograf3.624BEAUMON Joris42BEL2:58:154:14 14.2033WONTERGEM
Vos photos gr?ce ? Sportograf4.404KOMOTO Tatsuo40JPN2:58:364:14 14.1834SHENZHEN
Vos photos gr?ce ? Sportograf5.1045BRÄSEL Michael42DEU3:01:194:18 13.9643BERLIN
Vos photos gr?ce ? Sportograf6.1768WEYTS Kurt40BEL3:03:324:21 13.8049STEKENE
Vos photos gr?ce ? Sportograf7.1674BLONDEAUX Yannick40BEL3:04:544:23 13.6954THY-LE-CHÂTEAU
Vos photos gr?ce ? Sportograf8.767NEVENS Joost44BEL3:05:184:24 13.6657TERVUREN
Vos photos gr?ce ? Sportograf9.1692SCHEPERS André42BEL3:06:344:26 13.5764DENDERMONDE
Vos photos gr?ce ? Sportograf10.1782VAN AKEN Thomas41BEL3:08:044:28 13.4673BRUXELLES
Vos photos gr?ce ? Sportograf11.825HENKEL Olaf41DEU3:08:574:29 13.4076PENZLIN OT MALLIN
Vos photos gr?ce ? Sportograf12.490POPEK Damian44POL3:09:404:30 13.3581COMPIEGNE
Vos photos gr?ce ? Sportograf13.1135MEINTANIS Sotirios42GRC3:11:024:32 13.2587SCHAARBEEK
Vos photos gr?ce ? Sportograf14.410HUVENNE Mathieu40FRA3:11:314:33 13.2290COLOMBES
Vos photos gr?ce ? Sportograf15.286CHARTOUF Rachid43BEL3:11:594:33 13.1994GENK
Vos photos gr?ce ? Sportograf16.1699FONTAINE Didier43BEL3:12:014:34 13.1995VOLLEZELE
Vos photos gr?ce ? Sportograf17.295VOLON Jean-Marc40BEL3:12:134:34 13.1797HERSTAL
Vos photos gr?ce ? Sportograf18.276MANIEZ Frantz44FRA3:12:374:34 13.14101AUBRY DU HAINAUT
Vos photos gr?ce ? Sportograf19.246WALCZAK-CAPÈLE Jérôme43FRA3:12:584:35 13.12104PARIS
Vos photos gr?ce ? Sportograf20.1206VERWACHT Quentin43BEL3:13:054:35 13.11107AUDERGHEM
Vos photos gr?ce ? Sportograf21.1611DEWÉ Walthère44BEL3:13:364:36 13.08116LIÈGE
Vos photos gr?ce ? Sportograf22.28GUISSART Alain44BEL3:14:124:37 13.04124BLEGNY
Vos photos gr?ce ? Sportograf23.369DELOGNE Tony42BEL3:15:014:38 12.98131WALPOLE
Vos photos gr?ce ? Sportograf24.904SCHELLIN Holger43DEU3:17:204:41 12.83154HAMBURG
Vos photos gr?ce ? Sportograf25.1703DE PAEPE Floris40BEL3:19:124:44 12.71171DE PINTE
Vos photos gr?ce ? Sportograf26.1760ROGIERS Dimitri40BEL3:19:344:44 12.69174WAASMUNSTER
Vos photos gr?ce ? Sportograf27.1619MINEUR Jean-Marc41BEL3:19:414:44 12.68175VERVIERS
Vos photos gr?ce ? Sportograf28.1063DAY Jonathan40GBR3:20:444:46 12.61185SUTTON
Vos photos gr?ce ? Sportograf29.588DE COCQ Thibault43BEL3:21:114:47 12.58189OVERIJSE
Vos photos gr?ce ? Sportograf30.792BOLDSEN Rasmus41DNK3:22:414:49 12.49204BRUSSELS
Vos photos gr?ce ? Sportograf31.1707VAN DE VELDE Tony43BEL3:22:424:49 12.49205LOCHRISTI
Vos photos gr?ce ? Sportograf32.865SCHREURS Sébastien40BEL3:23:364:50 12.44212OTTIGNIES
Vos photos gr?ce ? Sportograf33.1011DE CONINCK Bernard40BEL3:24:104:51 12.40218TERVUREN
Vos photos gr?ce ? Sportograf34.333CLINET Jean-Philippe40BEL3:24:104:51 12.40219THUILLIES
Vos photos gr?ce ? Sportograf35.861ERNOULD Christophe44BEL3:24:114:51 12.40220LA LOUVIERE
Vos photos gr?ce ? Sportograf36.464VOGNA Italo44ITA3:26:074:54 12.28240NAPOLI
Vos photos gr?ce ? Sportograf37.583SAUVAL Bernard42BEL3:26:374:54 12.25248ETTERBEEK
Vos photos gr?ce ? Sportograf38.939ONCKELINX Kristof40BEL3:27:124:55 12.22261GINGELOM
Vos photos gr?ce ? Sportograf39.79VERSCHAEVE Bart41BEL3:27:374:56 12.19275PITTEM
Vos photos gr?ce ? Sportograf40.30HOEBANCKX Thomas42BEL3:28:114:57 12.16283BRUXELLES
Vos photos gr?ce ? Sportograf41.12MOREIRA CAMPOS Miguel43PRT3:28:304:57 12.14287LISBOA
Vos photos gr?ce ? Sportograf42.13ASSIS CABELEIRA Joao43PRT3:28:334:57 12.14289LISBOA
Vos photos gr?ce ? Sportograf43.1736HAYEN Cedric41BEL3:29:174:58 12.10295STERREBEEK
Vos photos gr?ce ? Sportograf44.513LOMBART Benny42BEL3:29:214:58 12.09297TONGEREN
Vos photos gr?ce ? Sportograf45.453HADJADJ Norbert43FRA3:29:484:59 12.07303MERIGNAC
Vos photos gr?ce ? Sportograf46.51WOUTERS Peter44BEL3:30:074:59 12.05310BRUSSEL
Vos photos gr?ce ? Sportograf47.452SALVATORI Ludovic40FRA3:31:515:02 11.95327BRUGES
Vos photos gr?ce ? Sportograf48.1236GODFRIND Vincent Daniel42BEL3:34:445:06 11.79349UCCLE
Vos photos gr?ce ? Sportograf49.1843M'TALSSI Nordine42BEL3:34:485:06 11.79350
Vos photos gr?ce ? Sportograf50.348FIGUEIREDO Alessio41BRA3:35:005:06 11.78353ARACAJU
Vos photos gr?ce ? Sportograf51.2476COOLS Olivier44BEL3:36:075:08 11.71368SPY
Vos photos gr?ce ? Sportograf52.409BORCHMANN-OLSEN Thomas44DNK3:36:355:08 11.69378NAESTVED
Vos photos gr?ce ? Sportograf53.598DELWARTE Laurent40BEL3:36:445:09 11.68380MONS
Vos photos gr?ce ? Sportograf54.1004BLONDEEL Lionel42FRA3:36:525:09 11.67383HOUPLINES
Vos photos gr?ce ? Sportograf55.1765FAYS Pierre41BEL3:37:095:09 11.66387PLAINEVAUX
Vos photos gr?ce ? Sportograf56.535PRIETO GONZALEZ Carlos40ESP3:37:275:10 11.64392AMSTERDAM
Vos photos gr?ce ? Sportograf57.1588LEMAIRE Philippe43BEL3:37:495:10 11.62400BRUXELLES
Vos photos gr?ce ? Sportograf58.290JENSEN Ken Nygaard42DNK3:38:075:11 11.61405COPENHAGEN
Vos photos gr?ce ? Sportograf59.1662VAN STRYDONCK Dave40BEL3:38:165:11 11.60408MERKSPLAS
Vos photos gr?ce ? Sportograf60.1180ABDOULAYE Mahamadou43BEL3:38:575:12 11.56420UKKEL
Vos photos gr?ce ? Sportograf61.502VAN SCHEL Chris44BEL3:39:475:13 11.52432AS
Vos photos gr?ce ? Sportograf62.1686PIRON Damien42BEL3:39:555:13 11.51434BRUXELLES
Vos photos gr?ce ? Sportograf63.262MIGNON Fabrice41BEL3:39:565:13 11.51435SAINT DENIS
Vos photos gr?ce ? Sportograf64.320DE WIEST Michel44BEL3:40:015:13 11.51437BLAREGNIES
Vos photos gr?ce ? Sportograf65.783BOLIS Dimitris42GRC3:40:025:13 11.51438ETTERBEEK
Vos photos gr?ce ? Sportograf66.1317LAU Frédéric43BEL3:40:145:14 11.50443UCCLE
Vos photos gr?ce ? Sportograf67.308PRUNIER Pascal43FRA3:41:275:15 11.43467BASSENEVILLE
Vos photos gr?ce ? Sportograf68.584BAUDUIN Guillaume42FRA3:42:195:17 11.39489SOLESMES
Vos photos gr?ce ? Sportograf69.1602PAPIN Cyrille40BEL3:42:225:17 11.39491RONSE
Vos photos gr?ce ? Sportograf70.754ZABUKOVEC Blaž42SVN3:42:385:17 11.37498WOLUWE SAINT PIERRE
Vos photos gr?ce ? Sportograf71.534CANO BELLIDO Jose Antonio44ESP3:42:585:18 11.36508TOLEDO
Vos photos gr?ce ? Sportograf72.1631RUELLE Jean44BEL3:43:205:18 11.34518WEZEMBEEK-OPPEM
Vos photos gr?ce ? Sportograf73.999PERIN Laurent42FRA3:43:585:19 11.30525HELLEMMES
Vos photos gr?ce ? Sportograf74.1860ROGGEMAN Bart43BEL3:44:235:20 11.28537
Vos photos gr?ce ? Sportograf75.284BOXUS Yannic43BEL3:44:315:20 11.28542LUSTIN
Vos photos gr?ce ? Sportograf76.1182GYSSENS David42BEL3:44:585:20 11.25544GRIMBERGEN
Vos photos gr?ce ? Sportograf77.1059GHIBERTI Maurizio44ITA3:45:065:21 11.25547SAN DAMIANO D'ASTI
Vos photos gr?ce ? Sportograf78.921FARRELL Liam44IRL3:45:495:22 11.21552BALBRIGGAN, CO DUBLIN IRE
Vos photos gr?ce ? Sportograf79.550KOVAC Damjan41SVN3:46:045:22 11.20556BRUSSELS
Vos photos gr?ce ? Sportograf80.1122WALLAU Alexander40DEU3:46:055:22 11.20557BRUSSELS
Vos photos gr?ce ? Sportograf81.629COUSTENOBLE Laurent43FRA3:46:075:22 11.20560CATILLON SUR SAMBRE
Vos photos gr?ce ? Sportograf82.1214BADIN Dirk40BEL3:47:095:23 11.15575BINCHE
Vos photos gr?ce ? Sportograf83.662ELST Daniel43NLD3:47:335:24 11.13581KLEIN ZUNDERT
Vos photos gr?ce ? Sportograf84.643CALLAERTS Stijn43BEL3:47:395:24 11.12582ONZE-LIEVE-VROUW-WAVER
Vos photos gr?ce ? Sportograf85.684BERTIER Frank42BEL3:47:405:24 11.12583WIJTSCHATE
Vos photos gr?ce ? Sportograf86.1035REINHARDT Karsten43DEU3:47:445:24 11.12587MADRID
Vos photos gr?ce ? Sportograf87.1510FANTIN Gaetano41BEL3:47:455:24 11.12589BOLINNE
Vos photos gr?ce ? Sportograf88.1834LAPORTE Steven41BEL3:48:085:25 11.10592OUD-TURNHOUT
Vos photos gr?ce ? Sportograf89.475BASTAITS Sébastien40BEL3:48:345:25 11.08598JODOIGNE
Vos photos gr?ce ? Sportograf90.1859VAN ZEEBROECK Bart44BEL3:49:155:26 11.04608
Vos photos gr?ce ? Sportograf91.1204LIBLIN Thibault Jean-Baptiste41FRA3:49:315:27 11.03613BRUXELLES
Vos photos gr?ce ? Sportograf92.748VERMAELEN Peter41BEL3:49:485:27 11.02619ITEGEM
Vos photos gr?ce ? Sportograf93.1609DE SCHRIJVER Steven41BEL3:49:575:27 11.01623LIEDEKERKE
Vos photos gr?ce ? Sportograf94.1851VERGALLE Jimmy41BEL3:49:575:27 11.01624
Vos photos gr?ce ? Sportograf95.1557CHRISTIAENS Filip41BEL3:49:585:27 11.01625DENDERLEEUW
Vos photos gr?ce ? Sportograf96.1086VERMAERKE Geert44BEL3:50:015:28 11.01628OUDENAARDE
Vos photos gr?ce ? Sportograf97.14CONCEIÇÃO Rui Pedro40PRT3:50:085:28 11.00631BRUXELLES
Vos photos gr?ce ? Sportograf98.383HENRIKSSON Par42SWE3:50:115:28 11.00633STOCKHOLM
Vos photos gr?ce ? Sportograf99.494TOLBECQ Stephane40BEL3:50:145:28 11.00635ASSE
Vos photos gr?ce ? Sportograf100.714ISHIWATA Hiroomi43JPN3:50:325:28 10.98641BRUSSELS
Vos photos gr?ce ? Sportograf101.1326DENIS Yves42BEL3:50:405:28 10.98645VERVIERS
Vos photos gr?ce ? Sportograf102.1801KAKWATA NDALA Seraphin40BEL3:50:495:29 10.97648STROMBEEK_BEVER
Vos photos gr?ce ? Sportograf103.1862VAN HAESEBROUCK Didier42BEL3:51:375:30 10.93661
Vos photos gr?ce ? Sportograf104.1716BEAULOYE Nicolas41BEL3:51:375:30 10.93662
Vos photos gr?ce ? Sportograf105.488SADI Zouzou Azman43BEL3:52:015:30 10.91668GINGELOM
Vos photos gr?ce ? Sportograf106.2354GRANELL Ignacio44ESP3:52:505:32 10.87685BRUXELLES
Vos photos gr?ce ? Sportograf107.1209GODAERT Bart43BEL3:52:505:32 10.87686STEENHUIZE
Vos photos gr?ce ? Sportograf108.1528LEVRAU Patrick40BEL3:53:375:33 10.84705WAREGEM
Vos photos gr?ce ? Sportograf109.223SOETE Wim40BEL3:53:425:33 10.83709BLANKENBERGE
Vos photos gr?ce ? Sportograf110.982BERTON Jeffrey40BEL3:54:155:34 10.81725KNOKKE-HEIST
Vos photos gr?ce ? Sportograf111.1047LAITERVO Henri42FIN3:54:295:34 10.80732ARNHEM
Vos photos gr?ce ? Sportograf112.1049LIVESEY Richard40GBR3:54:295:34 10.80734OXFORD
Vos photos gr?ce ? Sportograf113.1783BUCELLA Dario40ITA3:55:345:35 10.75753BRUXELLES
Vos photos gr?ce ? Sportograf114.1301DECOODT Patrick42BEL3:55:485:36 10.74757BEGIJNENDIJK
Vos photos gr?ce ? Sportograf115.141VAN DEN HOVE Benoit41BEL3:55:555:36 10.73759SAINT-SERVAIS
Vos photos gr?ce ? Sportograf116.495LAMBERT Christian44BEL3:57:465:39 10.65803ETALLE
Vos photos gr?ce ? Sportograf117.74DE DECKER Peter40BEL3:58:245:39 10.62822MALDEGEM
Vos photos gr?ce ? Sportograf118.1102BONNECHERE Xavier42FRA3:58:395:40 10.61831NOMAIN
Vos photos gr?ce ? Sportograf119.1530PEREZ PRIETO Jesus42ESP3:59:405:41 10.56846FOREST
Vos photos gr?ce ? Sportograf120.1450VAN BEIRENDONCK Wouter42BEL3:59:455:41 10.56849MORTSEL
Vos photos gr?ce ? Sportograf121.1041CROES Mark42BEL3:59:545:42 10.55852TISSELT
Vos photos gr?ce ? Sportograf122.1577EVENEPOEL Bart42BEL4:00:275:42 10.53857LENNIK
Vos photos gr?ce ? Sportograf123.1708JACOBS Patrick40BEL4:01:355:44 10.48867OUDERGEM
Vos photos gr?ce ? Sportograf124.1712DEVREESE Dimitri43BEL4:02:055:45 10.46877WAREGEM
Vos photos gr?ce ? Sportograf125.971KLEMENZ Gerald41DEU4:02:205:45 10.45880HOFHEIM
Vos photos gr?ce ? Sportograf126.1781BEGUIN Dimitri42BEL4:02:345:45 10.44884CHARLEROI
Vos photos gr?ce ? Sportograf127.659DEPREZ Jean Jacques43FRA4:03:325:47 10.40897HALLUIN
Vos photos gr?ce ? Sportograf128.1761GRYMONPREZ Nico44BEL4:03:435:47 10.39901OOSTENDE
Vos photos gr?ce ? Sportograf129.1648SISOUNOL Virassack40FRA4:03:465:47 10.39903BRUXELLES
Vos photos gr?ce ? Sportograf130.879SEWERA Rafal42POL4:04:025:48 10.37906STOLBERG
Vos photos gr?ce ? Sportograf131.1791KUYPERS Christophe40BEL4:06:095:51 10.29936GESVES
Vos photos gr?ce ? Sportograf132.1527CAUWELIER Pascal43BEL4:06:525:52 10.26947ASPER
Vos photos gr?ce ? Sportograf133.1124LE RAY Mikael42FRA4:07:245:52 10.23956BRUXELLES
Vos photos gr?ce ? Sportograf134.1208NAPIER Stewart42GBR4:07:245:52 10.23957GODARVILLE
Vos photos gr?ce ? Sportograf135.658BOISSELEAU Francois40FRA4:08:415:54 10.18977BRUSSELS
Vos photos gr?ce ? Sportograf136.966DEHAN Michaël43BEL4:08:465:54 10.18978BRUXELLES
Vos photos gr?ce ? Sportograf137.1100BOUVIER Alexandre41FRA4:09:035:55 10.17984VEDRIN
Vos photos gr?ce ? Sportograf138.1698DE WANDEL Chris42BEL4:09:445:56 10.14992SINT-LIEVENS-HOUTEM
Vos photos gr?ce ? Sportograf139.809KELWAY Paul42GBR4:10:025:56 10.13997BRUSSELS
Vos photos gr?ce ? Sportograf140.1748ACIK Samil41BEL4:10:525:57 10.091003LIÈGE
Vos photos gr?ce ? Sportograf141.1449DE ROP Andy Gustaaf40BEL4:11:505:59 10.051009SINT-LIEVENS-HOUTEM
Vos photos gr?ce ? Sportograf142.528GARCÍA MARTÍN José44ESP4:11:585:59 10.051010BRUSELAS
Vos photos gr?ce ? Sportograf143.1711DE CONINCK Michael44BEL4:12:326:00 10.031021WAREGEM
Vos photos gr?ce ? Sportograf144.1540ERNOUX Gilles41BEL4:12:586:00 10.011027BRUXELLES
Vos photos gr?ce ? Sportograf145.1562VANDEKERKHOVEN Frederic43BEL4:13:076:00 10.001031BRUXELLES
Vos photos gr?ce ? Sportograf146.2450ROGER Sebastien42BEL4:13:106:00 10.001032ROSIERES
Vos photos gr?ce ? Sportograf147.862NOTTEAU Yoann40FRA4:13:156:01 10.001036ANICHE
Vos photos gr?ce ? Sportograf148.553CORNU Kevin43FRA4:13:196:01 9.991038HALLUIN
Vos photos gr?ce ? Sportograf149.2462VERBRUGGEN Marc42BEL4:14:246:02 9.951052LEERNES
Vos photos gr?ce ? Sportograf150.943BADINKA Paul43USA4:14:256:02 9.951053LOS ANGELES
Vos photos gr?ce ? Sportograf151.951WARDAK Tomasz43POL4:14:586:03 9.931061RADZYMIN
Vos photos gr?ce ? Sportograf152.952LOUINEAU Olivier44FRA4:15:416:04 9.901066WATERLOO
Vos photos gr?ce ? Sportograf153.507FORNASARI Stephan43BEL4:15:446:04 9.901067BIERGHES
Vos photos gr?ce ? Sportograf154.188PEIJMANS David41BEL4:15:476:04 9.901070GRAND-LEEZ
Vos photos gr?ce ? Sportograf155.157CHAUMANTIN Thierry41FRA4:15:516:04 9.901072OVERIJSE
Vos photos gr?ce ? Sportograf156.100VANDENHEULE Frédéric42BEL4:16:296:05 9.871077RONSE
Vos photos gr?ce ? Sportograf157.1598VANDENBRANDEN Siegfried40BEL4:17:276:07 9.831094OETINGEN
Vos photos gr?ce ? Sportograf158.1771MAGOTTE Olivier44BEL4:17:516:07 9.821102OTTIGNIES
Vos photos gr?ce ? Sportograf159.197BORREMANS Eric44BEL4:19:216:09 9.761126BRUXELLES
Vos photos gr?ce ? Sportograf160.734ABBOTT Colm42IRL4:19:356:10 9.751129ENFIELD
Vos photos gr?ce ? Sportograf161.1864EMPAIN Daniel43BEL4:21:376:13 9.681147LA LOUVIERE
Vos photos gr?ce ? Sportograf162.419ORSINGHER Sebastien42FRA4:22:356:14 9.641154FROUZINS
Vos photos gr?ce ? Sportograf163.256MEYS Frederic44BEL4:22:396:14 9.641155BRUXELLES
Vos photos gr?ce ? Sportograf164.1094VATAN Fabrice43FRA4:23:396:15 9.601167PARIS
Vos photos gr?ce ? Sportograf165.292TAICHI Shibayama40JPN4:23:456:16 9.601169SAPPORO,HOKKAIDO
Vos photos gr?ce ? Sportograf166.346FRANCIS Stephen40GBR4:23:486:16 9.601172HIGHAM ON THE HILL
Vos photos gr?ce ? Sportograf167.407MADSEN Jesper44DNK4:24:556:17 9.561186VANLØSE
Vos photos gr?ce ? Sportograf168.540VERHAEVERT Bart42BEL4:25:546:19 9.521200OPWIJK
Vos photos gr?ce ? Sportograf169.780BOUCHAKOR Allal41FRA4:27:376:21 9.461215BEAUVAIS
Vos photos gr?ce ? Sportograf170.2398WOLLIN Johan42SWE4:27:426:21 9.461216BRUXELLES
Vos photos gr?ce ? Sportograf171.990NOZU Kenichi44JPN4:33:156:29 9.271252BRUSSELS
Vos photos gr?ce ? Sportograf172.59NELL Patrick42BEL4:33:336:29 9.261255VILVOORDE
Vos photos gr?ce ? Sportograf173.920NTSHABELE Boitshoko44ZAF4:34:436:31 9.221264BRUSSELS
Vos photos gr?ce ? Sportograf174.571MAJOZI Mfundo42ZAF4:34:446:31 9.221265TERVUREN
Vos photos gr?ce ? Sportograf175.649FACON Damien43FRA4:35:416:32 9.181276TRESSIN
Vos photos gr?ce ? Sportograf176.334BILLSON Simon40GBR4:35:556:33 9.181278BRUSSELS
Vos photos gr?ce ? Sportograf177.633DESMET Mike40BEL4:36:006:33 9.171279BORGERHOUT
Vos photos gr?ce ? Sportograf178.564TACK Andy43BEL4:37:076:35 9.141286OOSTROZEBEKE
Vos photos gr?ce ? Sportograf179.1836DIEU Sébastien42BEL4:39:366:38 9.051311
Vos photos gr?ce ? Sportograf180.519JALLALI Mohssine42BEL4:40:596:40 9.011318JAMBES
Vos photos gr?ce ? Sportograf181.830SUMIDA Daisuke41JPN4:43:206:43 8.941331BRUSSELS
Vos photos gr?ce ? Sportograf182.2463DOUMONT Johan42BEL4:44:136:45 8.911335TAMINES
Vos photos gr?ce ? Sportograf183.1302GLORIEUX Frédéric Marcel44BEL4:47:026:49 8.821353EVERE
Vos photos gr?ce ? Sportograf184.618PIERREUX Bart41BEL4:48:006:50 8.791362HALLE
Vos photos gr?ce ? Sportograf185.712GIRALDO Alejandro44COL4:48:036:50 8.791363BOGOTA
Vos photos gr?ce ? Sportograf186.1438CROSNIER Laurent44FRA4:52:086:56 8.671385FONDETTES
Vos photos gr?ce ? Sportograf187.237DEKETELAERE Thibault44BEL4:53:186:58 8.631392NOSSEGEM
Vos photos gr?ce ? Sportograf188.400VERSCHUERE David43FRA5:04:167:13 8.321415LE PECQ
Vos photos gr?ce ? SportografDSQ297CRUSSON Laurent43FRA3:32:16PARIS
Vos photos gr?ce ? SportografDSQ435RODRIGUEZ Ricardo44ESP3:59:14MADRID
Vos photos gr?ce ? SportografDNF1111BOUVILLE Franck43FRACLENLEU
Vos photos gr?ce ? SportografDNF46CONDIC-BEGOV Robin44BELASSE
Vos photos gr?ce ? SportografDNF175DE RIEMAECKER Thierry44BELROOSBEEK
Vos photos gr?ce ? SportografDNF972DE VILLE Fabian41BELNIVELLES
Vos photos gr?ce ? SportografDNF224DOLLE Sebastien40FRAPLEUBIAN
Vos photos gr?ce ? SportografDNF460VAN AUTREVE Boudewijn41BELGENT
DNF: abandon; DSQ: disqualifié; Vitesse en km/h
Page: [1]